Find Starlink 11734

NORAD ID: 64329 Int'l Des: 2025-124 Owner: SPXS Country: US Constellation: starlink operational
又名: STARLINK-11734 [DTC] celestrak
LEOCIRCULAR

当前视图

正在加载3D地球...

About Starlink 11734

Starlink 11734 (NORAD 64329) is a starlink constellation satellite (v2 mini d2c) launched Jun 10, 2025 by SPXS of US. It operates in LEO, CIRCULAR orbit with a mass of 960.00 kg.

即将过境

Passes for default location (London). Set your location on the main map for personalized predictions.

高度历史

Loading altitude history...

两行轨道根数

1 64329U 25124N 26236.89384053 .00160095 00000-0 12252-2 0 9992
2 64329 43.0005 94.8754 0001410 266.2577 93.8129 15.70879491 69295
Epoch: Aug 24, 2026 • Age: 11 hours

当前状态

高度 355.3 km
远地点 / 近地点 N/A
速度 7.70 km/s
星下点 13.06°N, 151.85°E
发射日期 Jun 10, 2025
运行时间 1.2 years
类型 internet

技术详情

分类 Payload
质量 960.00 kg
干质量 910.00 kg
总质量 960.00 kg
长度 0.30 m
直径 4.10 m
跨度 29.00 m
形状 Box + pan
制造商 SPXS
平台类型 Starlink V2MD
阶段状态 In Orbit
所有者/国家 SPXS/US

Most Searched